Showing default

TYCHE, 60496

Orbit data source: Space-Track

TYCHE, 60496 is a UK payload satellite in SSO that was launched on Fri, 16 Aug 2024 UTC via an FALCON 9 launch vehicle from the Air Force Western Test Range (AFWTR). Payload-class satellites include a variety of spacecraft equipped with specific instruments for various scientific and technological missions. These include communications satellites like Starlink; space stations such as the ISS; scientific satellites like the Hubble; Earth observation satellites from companies like Planet Labs, Umbra, and HawkEye 360; GPS; miniature CubeSats for education and research; and military/defense satellites.

Loading next visibility...
Identifier
60496, 2024-149AE
Orbit
SSO
Country
Flag of UKUK
Related business
Manufacturer
SSTL
Mission
Operational Commercial Imaging
Bus & Motor
CARBONITE+, Unknown motor
Mass
150 kg wet, 150 kg dry
Launch date (UTC)
2024-08-16 (2 years ago)
Launch vehicle
FALCON 9
Launch site
Air Force Western Test Range (AFWTR)
Object type
Payload
Rocket body
Debris
Shape & HBR
Box, 0.5 m
Radar Cross Section
0.780 m², Large (>1 m²)

Expand to show TLE details & history
Last TLE update: 13 hours ago

TLE from 13 hours ago
0 TYCHE
1 60496U 24149AE  26207.54831362  .00004615  00000-0  18326-3 0  9993
2 60496  97.3746 284.8310 0003792 139.2756 220.8767 15.25822285107902
Epoch: 2026-07-26T13:09Z
TLE epoch observation values (Epoch: 2026-07-26T13:09:34.296Z)
Latitude
0.00002°
Longitude
143.19344°
Altitude
493.386 km
Speed
7.617 km/s
True Right ascension
18h 59m 19s
True Declination
0° 00' 00"
Sunlit
Object was in full shadow at epoch
Visualization orbit readout
Latitude
Unknown
Longitude
Unknown
Altitude
Unknown
Speed
Unknown
Apparent Right ascension
Unknown
Apparent Declination
Unknown
Sunlit
N/A
Visualization observer readout
Local Sidereal Time
15:54:33
Azimuth
Unknown
Elevation
Unknown
Doppler factor
Unknown
Orbital elements
Apogee altitude
487.877 km
Perigee altitude
482.672 km
Semi-major axis
6,863.411 km
Eccentricity
0.00038
Inclination
97.3746°
RAAN
284.831°
Arg. of periapsis
139.2756°
True anomaly
220.84827°
Mean anomaly
220.8767°
Eccentric anomaly
220.86249°
Mean motion
3.8171 °/min
Orbital period
94.31 mins
BSTAR
0.00018326
Loading maneuver chart data...
Computing Atmospheric mass density...
Loading historical data...
Loading historical data...
Loading historical data...
Loading historical data...
Loading historical data...
Loading historical data...
Loading historical data...

Documentation

Showing up to 5 results
|